,,Stat5,,Stat1,,Stat2,,Stat3,,Stat4,,Wind1,,Wind1,
time,status,PA1M_AVG,status,PR1M_SUM,status,RH1M_AVG,status,SR1M_AVG,status,TA1M_AVG,status,W1dAve1m,status,W1sAve1m,
2002-04-03, 00:00:00,VALID,919.574,VALID,0,VALID,98.3421,VALID,-0.0679233,VALID,19.3841,VALID,142,VALID,0.915234,
2002-04-03, 00:01:00,VALID,919.588,VALID,0,VALID,98.3497,VALID,-0.101885,VALID,19.3943,VALID,133,VALID,0.408203,
2002-04-03, 00:02:01,VALID,919.601,VALID,0,VALID,98.3256,VALID,-0.101885,VALID,19.3881,VALID,125,VALID,0.636218,
2002-04-03, 00:03:00,VALID,919.599,VALID,0,VALID,98.2963,VALID,-0.0849042,VALID,19.3745,VALID,106,VALID,0.739309,
2002-04-03, 00:04:00,VALID,919.592,VALID,0,VALID,98.2658,VALID,-0.101885,VALID,19.365,VALID,91,VALID,0.516059,
2002-04-03, 00:05:00,VALID,919.585,VALID,0,VALID,98.2887,VALID,-0.0849042,VALID,19.3491,VALID,88,VALID,0.67793,
2002-04-03, 00:06:01,VALID,919.569,VALID,0,VALID,98.2849,VALID,-0.101885,VALID,19.3491,VALID,86,VALID,0.735937,
2002-04-03, 00:07:00,VALID,919.559,VALID,0,VALID,98.2658,VALID,-0.101885,VALID,19.3456,VALID,82,VALID,0.814967,
2002-04-03, 00:08:01,VALID,919.548,VALID,0,VALID,98.3128,VALID,-0.101885,VALID,19.3461,VALID,82,VALID,0.757813,
2002-04-03, 00:09:00,VALID,919.543,VALID,0,VALID,98.3713,VALID,-0.0849042,VALID,19.369,VALID,82,VALID,0.680489,
2002-04-03, 00:10:00,VALID,919.535,VALID,0,VALID,98.3116,VALID,-0.101885,VALID,19.3715,VALID,79,VALID,1.07031,
2002-04-03, 00:11:01,VALID,919.541,VALID,0,VALID,98.3662,VALID,-0.0679233,VALID,19.4005,VALID,78,VALID,1.17496,
2002-04-03, 00:12:00,VALID,919.533,VALID,0,VALID,98.2899,VALID,0,VALID,19.4219,VALID,73,VALID,0.957137,
2002-04-03, 00:13:00,VALID,919.526,VALID,0,VALID,98.1755,VALID,0,VALID,19.4192,VALID,81,VALID,0.88557,
2002-04-03, 00:14:01,VALID,919.521,VALID,0,VALID,98.1056,VALID,0.0169808,VALID,19.4182,VALID,89,VALID,0.765053,
2002-04-03, 00:15:01,VALID,919.501,VALID,0,VALID,98.1335,VALID,0,VALID,19.4217,VALID,107,VALID,0.891827,
2002-04-03, 00:16:00,VALID,919.474,VALID,0,VALID,98.178,VALID,0.0169808,VALID,19.4803,VALID,99,VALID,0.932292,
2002-04-03, 00:17:00,VALID,919.436,VALID,0,VALID,98.1946,VALID,0,VALID,19.532,VALID,103,VALID,0.908923,
2002-04-03, 00:18:01,VALID,919.4,VALID,0,VALID,98.0865,VALID,0,VALID,19.5742,VALID,101,VALID,0.660616,
2002-04-03, 00:19:00,VALID,919.365,VALID,0,VALID,97.9225,VALID,0.0339617,VALID,19.5869,VALID,77,VALID,0.332682,
2002-04-03, 00:20:00,VALID,919.331,VALID,0,VALID,97.6656,VALID,0,VALID,19.5479,VALID,77,VALID,0.331203,
2002-04-03, 00:21:00,VALID,919.312,VALID,0,VALID,97.5028,VALID,0,VALID,19.5186,VALID,77,VALID,0.176098,
2002-04-03, 00:22:00,VALID,919.304,VALID,0,VALID,97.3502,VALID,0.0169808,VALID,19.4895,VALID,77,VALID,0.0365349,
2002-04-03, 00:23:00,VALID,919.288,VALID,0,VALID,97.2765,VALID,0.0339617,VALID,19.4378,VALID,77,VALID,0.116132,
2002-04-03, 00:24:00,VALID,919.273,VALID,0,VALID,97.2638,VALID,0.0169808,VALID,19.4217,VALID,77,VALID,0.00493421,
2002-04-03, 00:25:00,VALID,919.261,VALID,0,VALID,97.0756,VALID,0,VALID,19.377,VALID,77,VALID,0.00925164,
2002-04-03, 00:26:00,VALID,919.234,VALID,0,VALID,96.9688,VALID,-0.0339617,VALID,19.3352,VALID,77,VALID,0.00625,
2002-04-03, 00:27:00,VALID,919.221,VALID,0,VALID,96.9827,VALID,-0.101885,VALID,19.2877,VALID,78,VALID,0.0992399,
2002-04-03, 00:28:01,VALID,919.199,VALID,0,VALID,97.1608,VALID,-0.101885,VALID,19.2723,VALID,78,VALID,0.131893,
2002-04-03, 00:29:00,VALID,919.178,VALID,0,VALID,97.3528,VALID,-0.101885,VALID,19.2817,VALID,116,VALID,0.226774,
2002-04-03, 00:30:00,VALID,919.156,VALID,0,VALID,97.4736,VALID,-0.118866,VALID,19.2815,VALID,117,VALID,0,
2002-04-03, 00:31:00,VALID,919.148,VALID,0,VALID,97.5283,VALID,-0.118866,VALID,19.2877,VALID,117,VALID,0,
2002-04-03, 00:32:00,VALID,919.142,VALID,0,VALID,97.4214,VALID,-0.0849042,VALID,19.2621,VALID,57,VALID,0.422768,
2002-04-03, 00:33:00,VALID,919.13,VALID,0,VALID,97.0629,VALID,-0.101885,VALID,19.1816,VALID,31,VALID,0.790118,
2002-04-03, 00:34:00,VALID,919.121,VALID,0,VALID,97.101,VALID,-0.0849042,VALID,19.1076,VALID,31,VALID,0.536535,
2002-04-03, 00:35:00,VALID,919.116,VALID,0,VALID,97.396,VALID,-0.101885,VALID,19.0907,VALID,31,VALID,0.286318,
2002-04-03, 00:36:00,VALID,919.111,VALID,0,VALID,97.6898,VALID,-0.101885,VALID,19.1394,VALID,31,VALID,0.290913,
2002-04-03, 00:37:00,VALID,919.092,VALID,0,VALID,97.9263,VALID,-0.101885,VALID,19.1978,VALID,31,VALID,0.541118,
2002-04-03, 00:38:00,VALID,919.089,VALID,0,VALID,97.8195,VALID,-0.118866,VALID,19.1913,VALID,40,VALID,0.797321,
2002-04-03, 00:39:00,VALID,919.079,VALID,0,VALID,97.7953,VALID,-0.101885,VALID,19.1625,VALID,34,VALID,0.918285,
2002-04-03, 00:40:01,VALID,919.076,VALID,0,VALID,97.953,VALID,-0.101885,VALID,19.1816,VALID,33,VALID,0.615579,
2002-04-03, 00:41:00,VALID,919.071,VALID,0,VALID,97.9263,VALID,-0.0679233,VALID,19.1749,VALID,32,VALID,0.599662,
2002-04-03, 00:42:01,VALID,919.056,VALID,0,VALID,97.7597,VALID,-0.0169808,VALID,19.1119,VALID,32,VALID,0.636963,
2002-04-03, 00:43:00,VALID,919.042,VALID,0,VALID,97.7521,VALID,0,VALID,19.0639,VALID,29,VALID,0.660857,
2002-04-03, 00:44:00,VALID,919.026,VALID,0,VALID,97.8652,VALID,0,VALID,19.0669,VALID,29,VALID,0.602232,
2002-04-03, 00:45:00,VALID,918.992,VALID,0,VALID,97.7546,VALID,0,VALID,19.0219,VALID,29,VALID,0.510769,
2002-04-03, 00:46:00,VALID,918.976,VALID,0,VALID,97.8563,VALID,-0.0169808,VALID,18.9991,VALID,29,VALID,0.626838,
2002-04-03, 00:47:00,VALID,918.955,VALID,0,VALID,97.9492,VALID,-0.0509425,VALID,19.0023,VALID,28,VALID,0.545819,
2002-04-03, 00:48:00,VALID,918.938,VALID,0,VALID,98.1361,VALID,0,VALID,19.0286,VALID,16,VALID,0.564967,
2002-04-03, 00:49:00,VALID,918.925,VALID,0,VALID,98.2721,VALID,-0.0169808,VALID,19.0701,VALID,16,VALID,0.334293,
2002-04-03, 00:50:00,VALID,918.926,VALID,0,VALID,98.3675,VALID,-0.0339617,VALID,19.1056,VALID,10,VALID,0.32433,
2002-04-03, 00:51:00,VALID,918.926,VALID,0,VALID,98.5087,VALID,-0.0509425,VALID,19.1804,VALID,3,VALID,0.158995,
2002-04-03, 00:52:01,VALID,918.915,VALID,0,VALID,98.5964,VALID,-0.0169808,VALID,19.248,VALID,310,VALID,0.317325,
2002-04-03, 00:53:00,VALID,918.901,VALID,0,VALID,98.6193,VALID,-0.0339617,VALID,19.2999,VALID,280,VALID,0.138725,
2002-04-03, 00:54:00,VALID,918.883,VALID,0,VALID,98.6091,VALID,-0.0169808,VALID,19.329,VALID,280,VALID,0,
2002-04-03, 00:55:00,VALID,918.85,VALID,0,VALID,98.501,VALID,-0.0169808,VALID,19.3099,VALID,280,VALID,0,
2002-04-03, 00:56:00,VALID,918.836,VALID,0,VALID,98.4464,VALID,-0.0339617,VALID,19.2935,VALID,1,VALID,0.279687,
2002-04-03, 00:57:00,VALID,918.797,VALID,0,VALID,98.4781,VALID,0,VALID,19.2805,VALID,35,VALID,0.398438,
2002-04-03, 00:58:00,VALID,918.781,VALID,0,VALID,98.5277,VALID,-0.0169808,VALID,19.3027,VALID,35,VALID,0.438879,
2002-04-03, 00:59:00,VALID,918.76,VALID,0,VALID,98.5468,VALID,0,VALID,19.3121,VALID,35,VALID,0.485642,
2002-04-03, 01:00:00,VALID,918.735,VALID,0,VALID,98.721,VALID,-0.0169808,VALID,19.3931,VALID,39,VALID,0.640214,
2002-04-03, 01:01:00,VALID,918.701,VALID,0,VALID,98.7197,VALID,0,VALID,19.4676,VALID,29,VALID,0.666941,
2002-04-03, 01:02:00,VALID,918.673,VALID,0,VALID,98.5188,VALID,0,VALID,19.451,VALID,29,VALID,0.570759,
2002-04-03, 01:03:00,VALID,918.652,VALID,0,VALID,98.4769,VALID,-0.0169808,VALID,19.4642,VALID,41,VALID,0.494721,
2002-04-03, 01:04:01,VALID,918.631,VALID,0,VALID,98.5875,VALID,0,VALID,19.5059,VALID,45,VALID,0.644072,
2002-04-03, 01:05:00,VALID,918.607,VALID,0,VALID,98.6053,VALID,-0.0169808,VALID,19.5998,VALID,30,VALID,0.670186,
2002-04-03, 01:06:00,VALID,918.601,VALID,0,VALID,98.3662,VALID,-0.0169808,VALID,19.6095,VALID,32,VALID,0.998779,
2002-04-03, 01:07:00,VALID,918.585,VALID,0,VALID,98.1831,VALID,0,VALID,19.61,VALID,31,VALID,0.738782,
2002-04-03, 01:08:00,VALID,918.577,VALID,0,VALID,98.1056,VALID,0,VALID,19.5998,VALID,34,VALID,0.760938,
2002-04-03, 01:09:00,VALID,918.56,VALID,0,VALID,98.1615,VALID,0,VALID,19.6289,VALID,47,VALID,0.992188,
2002-04-03, 01:10:00,VALID,918.555,VALID,0,VALID,98.1742,VALID,0,VALID,19.6771,VALID,46,VALID,0.896829,
2002-04-03, 01:11:00,VALID,918.525,VALID,0,VALID,98.0801,VALID,0,VALID,19.7196,VALID,46,VALID,0.831503,
2002-04-03, 01:12:00,VALID,918.509,VALID,0,VALID,97.9911,VALID,0,VALID,19.739,VALID,56,VALID,0.86287,
2002-04-03, 01:13:00,VALID,918.469,VALID,0,VALID,97.9097,VALID,-0.0169808,VALID,19.7549,VALID,61,VALID,1.00411,
2002-04-03, 01:14:00,VALID,918.443,VALID,0,VALID,97.8296,VALID,0.0169808,VALID,19.7835,VALID,73,VALID,0.970536,
2002-04-03, 01:15:00,VALID,918.417,VALID,0,VALID,97.7495,VALID,0,VALID,19.7867,VALID,80,VALID,0.925253,
2002-04-03, 01:16:01,VALID,918.372,VALID,0,VALID,97.6719,VALID,0,VALID,19.8098,VALID,87,VALID,0.854779,
2002-04-03, 01:17:01,VALID,918.352,VALID,0,VALID,97.5511,VALID,0,VALID,19.8063,VALID,98,VALID,0.866132,
2002-04-03, 01:18:01,VALID,918.321,VALID,0,VALID,97.4685,VALID,0,VALID,19.813,VALID,98,VALID,0.845947,
2002-04-03, 01:19:01,VALID,918.309,VALID,0,VALID,97.4481,VALID,-0.0169808,VALID,19.7897,VALID,100,VALID,0.768429,
2002-04-03, 01:20:00,VALID,918.279,VALID,0,VALID,97.4621,VALID,0,VALID,19.8061,VALID,114,VALID,0.563616,
2002-04-03, 01:21:00,VALID,918.258,VALID,0,VALID,97.4227,VALID,0,VALID,19.8021,VALID,115,VALID,0.726774,
2002-04-03, 01:22:00,VALID,918.236,VALID,0,VALID,97.3261,VALID,0.0339617,VALID,19.7994,VALID,138,VALID,0.721048,
2002-04-03, 01:23:00,VALID,918.202,VALID,0,VALID,97.1175,VALID,0,VALID,19.7837,VALID,130,VALID,0.600507,
2002-04-03, 01:24:00,VALID,918.173,VALID,0,VALID,96.9891,VALID,0,VALID,19.7087,VALID,105,VALID,0.729235,
2002-04-03, 01:25:01,VALID,918.162,VALID,0,VALID,96.9001,VALID,0,VALID,19.651,VALID,112,VALID,0.886102,
2002-04-03, 01:26:01,VALID,918.144,VALID,0,VALID,96.9916,VALID,-0.0169808,VALID,19.5929,VALID,115,VALID,0.868973,
2002-04-03, 01:27:00,VALID,918.112,VALID,0,VALID,97.1239,VALID,0.0169808,VALID,19.5444,VALID,109,VALID,0.792863,
2002-04-03, 01:28:01,VALID,918.077,VALID,0,VALID,97.1989,VALID,0,VALID,19.493,VALID,102,VALID,0.672564,
2002-04-03, 01:29:00,VALID,918.048,VALID,0,VALID,97.2994,VALID,-0.0169808,VALID,19.4314,VALID,102,VALID,0.532517,
2002-04-03, 01:30:00,VALID,918.019,VALID,0,VALID,97.4837,VALID,0.0169808,VALID,19.3827,VALID,130,VALID,0.509521,
2002-04-03, 01:31:01,VALID,917.989,VALID,0,VALID,97.6516,VALID,0,VALID,19.3735,VALID,115,VALID,0.540064,
2002-04-03, 01:32:00,VALID,917.971,VALID,0,VALID,97.7368,VALID,0,VALID,19.3509,VALID,118,VALID,0.6375,
2002-04-03, 01:33:01,VALID,917.961,VALID,0,VALID,97.8131,VALID,0.0169808,VALID,19.3218,VALID,135,VALID,0.822002,
2002-04-03, 01:34:01,VALID,917.966,VALID,0,VALID,97.8487,VALID,-0.0169808,VALID,19.2826,VALID,122,VALID,1.07514,
2002-04-03, 01:35:01,VALID,917.946,VALID,0,VALID,97.8818,VALID,0,VALID,19.2537,VALID,111,VALID,1.08847,
2002-04-03, 01:36:01,VALID,917.958,VALID,0,VALID,97.972,VALID,0,VALID,19.2184,VALID,99,VALID,0.765214,
2002-04-03, 01:37:01,VALID,917.965,VALID,0,VALID,98.0064,VALID,0.0169808,VALID,19.1732,VALID,88,VALID,0.703331,
2002-04-03, 01:38:01,VALID,917.961,VALID,0,VALID,98.0674,VALID,0,VALID,19.134,VALID,74,VALID,0.708036,
2002-04-03, 01:39:01,VALID,917.964,VALID,0,VALID,98.131,VALID,0,VALID,19.1181,VALID,67,VALID,0.639147,
2002-04-03, 01:40:01,VALID,917.968,VALID,0,VALID,98.1704,VALID,-0.0169808,VALID,19.086,VALID,68,VALID,0.675092,
2002-04-03, 01:41:01,VALID,917.955,VALID,0,VALID,98.2378,VALID,0,VALID,19.0669,VALID,72,VALID,0.839316,
2002-04-03, 01:42:01,VALID,917.933,VALID,0,VALID,98.2823,VALID,-0.0339617,VALID,19.0704,VALID,76,VALID,0.990479,
2002-04-03, 01:43:01,VALID,917.923,VALID,0,VALID,98.3192,VALID,0,VALID,19.0604,VALID,83,VALID,1.04748,
2002-04-03, 01:44:01,VALID,917.897,VALID,0,VALID,98.3726,VALID,0,VALID,19.0542,VALID,89,VALID,1.00246,
2002-04-03, 01:45:01,VALID,917.903,VALID,0,VALID,98.4031,VALID,-0.0169808,VALID,19.0378,VALID,87,VALID,0.871622,
2002-04-03, 01:46:01,VALID,917.898,VALID,0,VALID,98.4006,VALID,0,VALID,19.041,VALID,85,VALID,0.665671,
2002-04-03, 01:47:01,VALID,917.909,VALID,0,VALID,98.3828,VALID,-0.0169808,VALID,19.0187,VALID,84,VALID,0.368666,
2002-04-03, 01:48:01,VALID,917.897,VALID,0,VALID,98.3993,VALID,-0.0169808,VALID,19.0058,VALID,84,VALID,0.441612,
2002-04-03, 01:49:01,VALID,917.889,VALID,0,VALID,98.4095,VALID,0,VALID,19.006,VALID,93,VALID,0.520182,
2002-04-03, 01:50:01,VALID,917.872,VALID,0,VALID,98.4845,VALID,-0.0339617,VALID,19.0122,VALID,100,VALID,0.434375,
2002-04-03, 01:51:01,VALID,917.86,VALID,0,VALID,98.5023,VALID,0,VALID,19.0087,VALID,101,VALID,0.400971,
2002-04-03, 01:52:01,VALID,917.843,VALID,0,VALID,98.5277,VALID,-0.0339617,VALID,19.0221,VALID,109,VALID,0.251379,
2002-04-03, 01:53:01,VALID,917.839,VALID,0,VALID,98.4718,VALID,-0.0169808,VALID,19.0023,VALID,143,VALID,0.483108,
2002-04-03, 01:54:01,VALID,917.837,VALID,0,VALID,98.4718,VALID,0,VALID,18.9958,VALID,148,VALID,0.414795,
2002-04-03, 01:55:00,VALID,917.832,VALID,0,VALID,98.4794,VALID,-0.0339617,VALID,18.9831,VALID,159,VALID,0.414864,
2002-04-03, 01:56:00,VALID,917.839,VALID,0,VALID,98.4667,VALID,0,VALID,18.9705,VALID,179,VALID,0.20067,
2002-04-03, 01:57:00,VALID,917.85,VALID,0,VALID,98.4858,VALID,0,VALID,18.9675,VALID,179,VALID,0.00316723,
2002-04-03, 01:58:00,VALID,917.852,VALID,0,VALID,98.5315,VALID,-0.0339617,VALID,18.9608,VALID,179,VALID,0.0335478,
2002-04-03, 01:59:00,VALID,917.854,VALID,0,VALID,98.5481,VALID,0.0169808,VALID,18.9769,VALID,179,VALID,0,
2002-04-03, 02:00:00,VALID,917.834,VALID,0,VALID,98.5328,VALID,0,VALID,18.9767,VALID,179,VALID,0,
2002-04-03, 02:01:00,VALID,917.831,VALID,0,VALID,98.5315,VALID,0,VALID,18.9737,VALID,179,VALID,0,
2002-04-03, 02:02:00,VALID,917.83,VALID,0,VALID,98.5544,VALID,0,VALID,18.9931,VALID,179,VALID,0,
2002-04-03, 02:03:00,VALID,917.835,VALID,0,VALID,98.4756,VALID,0,VALID,18.9739,VALID,143,VALID,0.0842483,
2002-04-03, 02:04:00,VALID,917.835,VALID,0,VALID,98.3968,VALID,0,VALID,18.9186,VALID,53,VALID,0.18796,
2002-04-03, 02:05:00,VALID,917.844,VALID,0,VALID,98.4998,VALID,0,VALID,18.9181,VALID,126,VALID,0.413218,
2002-04-03, 02:06:00,VALID,917.848,VALID,0,VALID,98.5252,VALID,0,VALID,18.9377,VALID,169,VALID,0.435303,
2002-04-03, 02:07:00,VALID,917.845,VALID,0,VALID,98.6396,VALID,0.0339617,VALID,18.9898,VALID,170,VALID,0.27504,
2002-04-03, 02:08:00,VALID,917.835,VALID,0,VALID,98.6384,VALID,0.0169808,VALID,19.0157,VALID,165,VALID,0.455804,
2002-04-03, 02:09:00,VALID,917.817,VALID,0,VALID,98.6078,VALID,0,VALID,19.012,VALID,147,VALID,0.918497,
2002-04-03, 02:10:00,VALID,917.809,VALID,0,VALID,98.6078,VALID,0,VALID,19.0122,VALID,132,VALID,0.618796,
2002-04-03, 02:11:00,VALID,917.8,VALID,0,VALID,98.6574,VALID,0,VALID,19.0217,VALID,132,VALID,0.43011,
2002-04-03, 02:12:00,VALID,917.799,VALID,0,VALID,98.5786,VALID,0,VALID,19.0318,VALID,175,VALID,0.785773,
2002-04-03, 02:13:00,VALID,917.796,VALID,0,VALID,98.5583,VALID,0,VALID,19.0062,VALID,164,VALID,0.854441,
2002-04-03, 02:14:00,VALID,917.79,VALID,0,VALID,98.557,VALID,0,VALID,18.9998,VALID,159,VALID,0.620536,
2002-04-03, 02:15:00,VALID,917.777,VALID,0,VALID,98.604,VALID,0,VALID,18.9993,VALID,163,VALID,0.699958,
2002-04-03, 02:16:00,VALID,917.765,VALID,0,VALID,98.6714,VALID,0,VALID,19.0286,VALID,165,VALID,0.713006,
2002-04-03, 02:17:00,VALID,917.768,VALID,0,VALID,98.6994,VALID,0,VALID,19.0574,VALID,169,VALID,0.661529,
2002-04-03, 02:18:00,VALID,917.761,VALID,0,VALID,98.721,VALID,0,VALID,19.08,VALID,174,VALID,0.523682,
2002-04-03, 02:19:00,VALID,917.747,VALID,0,VALID,98.7325,VALID,-0.0169808,VALID,19.0994,VALID,176,VALID,0.424679,
2002-04-03, 02:20:00,VALID,917.746,VALID,0,VALID,98.7643,VALID,0,VALID,19.1354,VALID,183,VALID,0.242188,
2002-04-03, 02:21:00,VALID,917.739,VALID,0,VALID,98.7808,VALID,0,VALID,19.1576,VALID,172,VALID,0.52935,
2002-04-03, 02:22:00,VALID,917.75,VALID,0,VALID,98.7554,VALID,-0.0169808,VALID,19.1705,VALID,158,VALID,0.341912,
2002-04-03, 02:23:00,VALID,917.75,VALID,0,VALID,98.7108,VALID,0,VALID,19.197,VALID,151,VALID,0.668285,
2002-04-03, 02:24:00,VALID,917.753,VALID,0,VALID,98.6956,VALID,0,VALID,19.1968,VALID,143,VALID,0.515831,
2002-04-03, 02:25:00,VALID,917.764,VALID,0,VALID,98.6613,VALID,0,VALID,19.1866,VALID,137,VALID,0.664063,
2002-04-03, 02:26:00,VALID,917.771,VALID,0,VALID,98.6778,VALID,-0.0169808,VALID,19.2,VALID,135,VALID,0.666071,
2002-04-03, 02:27:00,VALID,917.753,VALID,0,VALID,98.6574,VALID,0.101885,VALID,19.2048,VALID,117,VALID,0.686022,
2002-04-03, 02:28:00,VALID,917.729,VALID,0,VALID,98.6689,VALID,0.101885,VALID,19.2117,VALID,126,VALID,0.715074,
2002-04-03, 02:29:00,VALID,917.708,VALID,0,VALID,98.6854,VALID,0.0849042,VALID,19.2115,VALID,136,VALID,0.761613,
2002-04-03, 02:30:00,VALID,917.686,VALID,0,VALID,98.6676,VALID,0.0679233,VALID,19.2445,VALID,141,VALID,0.919189,
2002-04-03, 02:31:00,VALID,917.657,VALID,0,VALID,98.707,VALID,0.0169808,VALID,19.2602,VALID,141,VALID,1.0016,
2002-04-03, 02:32:00,VALID,917.637,VALID,0,VALID,98.6574,VALID,0.0849042,VALID,19.2763,VALID,145,VALID,0.884598,
2002-04-03, 02:33:00,VALID,917.626,VALID,0,VALID,98.5939,VALID,0.101885,VALID,19.286,VALID,149,VALID,0.973184,
2002-04-03, 02:34:00,VALID,917.609,VALID,0,VALID,98.5506,VALID,0.0679233,VALID,19.2828,VALID,151,VALID,0.738741,
2002-04-03, 02:35:00,VALID,917.592,VALID,0,VALID,98.5227,VALID,0.0849042,VALID,19.2763,VALID,152,VALID,0.541385,
2002-04-03, 02:36:00,VALID,917.575,VALID,0,VALID,98.4502,VALID,0.0679233,VALID,19.2699,VALID,169,VALID,0.749794,
2002-04-03, 02:37:00,VALID,917.56,VALID,0,VALID,98.3395,VALID,0.0679233,VALID,19.2309,VALID,164,VALID,0.795641,
2002-04-03, 02:38:00,VALID,917.548,VALID,0,VALID,98.3077,VALID,0.0679233,VALID,19.202,VALID,154,VALID,0.662723,
2002-04-03, 02:39:00,VALID,917.542,VALID,0,VALID,98.2543,VALID,0.0849042,VALID,19.1725,VALID,155,VALID,0.723606,
2002-04-03, 02:40:00,VALID,917.531,VALID,0,VALID,98.2353,VALID,0.0849042,VALID,19.1437,VALID,146,VALID,0.580882,
2002-04-03, 02:41:00,VALID,917.522,VALID,0,VALID,98.2187,VALID,0.0679233,VALID,19.1116,VALID,131,VALID,0.538007,
2002-04-03, 02:42:00,VALID,917.503,VALID,0,VALID,98.206,VALID,0.0509425,VALID,19.089,VALID,135,VALID,0.561035,
2002-04-03, 02:43:00,VALID,917.493,VALID,0,VALID,98.2302,VALID,0.0679233,VALID,19.0599,VALID,137,VALID,0.513021,
2002-04-03, 02:44:00,VALID,917.474,VALID,0,VALID,98.2671,VALID,0.101885,VALID,19.0205,VALID,128,VALID,0.541741,
2002-04-03, 02:45:00,VALID,917.458,VALID,0,VALID,98.2645,VALID,0.0849042,VALID,19.0018,VALID,129,VALID,0.811022,
2002-04-03, 02:46:00,VALID,917.449,VALID,0,VALID,98.3039,VALID,0.0849042,VALID,18.9626,VALID,127,VALID,0.914292,
2002-04-03, 02:47:00,VALID,917.435,VALID,0,VALID,98.384,VALID,0.0509425,VALID,18.9432,VALID,111,VALID,1.06039,
2002-04-03, 02:48:00,VALID,917.428,VALID,0,VALID,98.4858,VALID,0.0679233,VALID,18.9402,VALID,99,VALID,1.20847,
2002-04-03, 02:49:00,VALID,917.415,VALID,0,VALID,98.6485,VALID,0.0849042,VALID,18.9531,VALID,101,VALID,1.20251,
2002-04-03, 02:50:00,VALID,917.397,VALID,0,VALID,98.7147,VALID,0.0849042,VALID,18.9626,VALID,109,VALID,1.10134,
2002-04-03, 02:51:00,VALID,917.38,VALID,0,VALID,98.7248,VALID,0.101885,VALID,18.9593,VALID,101,VALID,1.0019,
2002-04-03, 02:52:00,VALID,917.374,VALID,0,VALID,98.7503,VALID,0.101885,VALID,18.9527,VALID,92,VALID,1.22174,
2002-04-03, 02:53:00,VALID,917.362,VALID,0,VALID,98.7986,VALID,0.101885,VALID,18.9531,VALID,96,VALID,1.41765,
2002-04-03, 02:54:00,VALID,917.358,VALID,0,VALID,98.8444,VALID,0.101885,VALID,18.9596,VALID,101,VALID,1.26855,
2002-04-03, 02:55:00,VALID,917.341,VALID,0,VALID,98.8571,VALID,0.0849042,VALID,18.9593,VALID,97,VALID,1.16707,
2002-04-03, 02:56:00,VALID,917.342,VALID,0,VALID,98.8723,VALID,0.0509425,VALID,18.9571,VALID,104,VALID,1.01473,
2002-04-03, 02:57:00,VALID,917.337,VALID,0,VALID,98.9346,VALID,-0.0169808,VALID,18.9642,VALID,108,VALID,1.20819,
2002-04-03, 02:58:00,VALID,917.317,VALID,0,VALID,98.9563,VALID,0,VALID,18.9774,VALID,121,VALID,1.00276,
2002-04-03, 02:59:00,VALID,917.318,VALID,0,VALID,98.9728,VALID,-0.0169808,VALID,18.9831,VALID,124,VALID,1.22825,
2002-04-03, 03:00:00,VALID,917.321,VALID,0,VALID,98.9766,VALID,0,VALID,19.0003,VALID,122,VALID,1.20025,
2002-04-03, 03:01:00,VALID,917.34,VALID,0,VALID,98.9703,VALID,-0.0169808,VALID,18.9866,VALID,113,VALID,1.20127,
2002-04-03, 03:02:00,VALID,917.352,VALID,0,VALID,98.9588,VALID,0,VALID,18.9963,VALID,117,VALID,1.30357,
2002-04-03, 03:03:00,VALID,917.365,VALID,0,VALID,98.9563,VALID,-0.0169808,VALID,19.003,VALID,110,VALID,1.22994,
2002-04-03, 03:04:00,VALID,917.37,VALID,0,VALID,98.9346,VALID,0,VALID,19.0028,VALID,116,VALID,1.35455,
2002-04-03, 03:05:00,VALID,917.375,VALID,0,VALID,98.913,VALID,-0.0339617,VALID,19.0025,VALID,129,VALID,1.13366,
2002-04-03, 03:06:00,VALID,917.359,VALID,0,VALID,98.8673,VALID,-0.0339617,VALID,19.0293,VALID,122,VALID,1.02637,
2002-04-03, 03:07:00,VALID,917.351,VALID,0,VALID,98.8355,VALID,-0.0339617,VALID,19.0219,VALID,120,VALID,0.711739,
2002-04-03, 03:08:00,VALID,917.327,VALID,0,VALID,98.8049,VALID,-0.0509425,VALID,19.0256,VALID,124,VALID,0.828571,
2002-04-03, 03:09:00,VALID,917.307,VALID,0,VALID,98.7846,VALID,-0.0169808,VALID,19.048,VALID,120,VALID,0.798986,
2002-04-03, 03:10:00,VALID,917.291,VALID,0,VALID,98.7528,VALID,0,VALID,19.0383,VALID,128,VALID,1.1188,
2002-04-03, 03:11:00,VALID,917.283,VALID,0,VALID,98.7083,VALID,-0.0509425,VALID,19.0381,VALID,123,VALID,1.24388,
2002-04-03, 03:12:00,VALID,917.277,VALID,0,VALID,98.6765,VALID,-0.0169808,VALID,19.0547,VALID,119,VALID,0.916735,
2002-04-03, 03:13:00,VALID,917.284,VALID,0,VALID,98.6587,VALID,-0.0169808,VALID,19.0674,VALID,112,VALID,1.12973,
2002-04-03, 03:14:00,VALID,917.304,VALID,0,VALID,98.6396,VALID,0,VALID,19.0837,VALID,119,VALID,1.24621,
2002-04-03, 03:15:00,VALID,917.304,VALID,0,VALID,98.6015,VALID,-0.0169808,VALID,19.1029,VALID,116,VALID,0.908995,
2002-04-03, 03:16:00,VALID,917.295,VALID,0,VALID,98.5468,VALID,0,VALID,19.1421,VALID,126,VALID,1.02528,
2002-04-03, 03:17:00,VALID,917.279,VALID,0,VALID,98.4972,VALID,-0.0169808,VALID,19.1578,VALID,125,VALID,0.850718,
2002-04-03, 03:18:00,VALID,917.257,VALID,0,VALID,98.4146,VALID,-0.0169808,VALID,19.1742,VALID,110,VALID,1.04688,
2002-04-03, 03:19:00,VALID,917.235,VALID,0,VALID,98.3993,VALID,-0.0339617,VALID,19.1968,VALID,100,VALID,1.11579,
2002-04-03, 03:20:00,VALID,917.235,VALID,0,VALID,98.4375,VALID,-0.0169808,VALID,19.2549,VALID,105,VALID,1.26429,
2002-04-03, 03:21:00,VALID,917.226,VALID,0,VALID,98.379,VALID,-0.0509425,VALID,19.3099,VALID,106,VALID,1.15034,
2002-04-03, 03:22:00,VALID,917.231,VALID,0,VALID,98.1221,VALID,-0.0339617,VALID,19.368,VALID,93,VALID,0.924403,
2002-04-03, 03:23:00,VALID,917.231,VALID,0,VALID,97.85,VALID,-0.0339617,VALID,19.3812,VALID,90,VALID,1.34143,
2002-04-03, 03:24:00,VALID,917.222,VALID,0,VALID,97.6147,VALID,0,VALID,19.3807,VALID,89,VALID,1.17475,
2002-04-03, 03:25:00,VALID,917.22,VALID,0,VALID,97.5257,VALID,-0.0169808,VALID,19.3675,VALID,93,VALID,1.32484,
2002-04-03, 03:26:00,VALID,917.199,VALID,0,VALID,97.499,VALID,0,VALID,19.3772,VALID,89,VALID,1.28683,
2002-04-03, 03:27:00,VALID,917.174,VALID,0,VALID,97.424,VALID,-0.0169808,VALID,19.3869,VALID,86,VALID,1.19869,
2002-04-03, 03:28:00,VALID,917.17,VALID,0,VALID,97.3528,VALID,-0.0679233,VALID,19.3904,VALID,100,VALID,1.18244,
2002-04-03, 03:29:00,VALID,917.144,VALID,0,VALID,97.265,VALID,-0.0339617,VALID,19.3707,VALID,123,VALID,0.943623,
2002-04-03, 03:30:00,VALID,917.128,VALID,0,VALID,97.1862,VALID,0,VALID,19.3481,VALID,124,VALID,1.04395,
2002-04-03, 03:31:00,VALID,917.111,VALID,0,VALID,97.2053,VALID,0,VALID,19.3223,VALID,119,VALID,0.980369,
2002-04-03, 03:32:00,VALID,917.105,VALID,0,VALID,97.3197,VALID,0,VALID,19.3056,VALID,118,VALID,0.774777,
2002-04-03, 03:33:00,VALID,917.112,VALID,0,VALID,97.4392,VALID,-0.0169808,VALID,19.2895,VALID,114,VALID,1.07221,
2002-04-03, 03:34:00,VALID,917.094,VALID,0,VALID,97.424,VALID,-0.0339617,VALID,19.2997,VALID,127,VALID,0.911765,
2002-04-03, 03:35:00,VALID,917.098,VALID,0,VALID,97.438,VALID,0,VALID,19.2868,VALID,128,VALID,1.09291,